Regional Weather Roundup
Issued by NWS

Home | Current Version | Previous Version | Graphics & Text | Print | Product List | Glossary On
Versions: 1 2 3 4 5 6 7 8 9 10 11 12 13 14 15 16 17 18 19 20 21 22 23 24 25 26 27 28 29 30 31 32 33 34 35 36 37 38 39 40 41 42 43 44 45 46 47 48 49 50
570
ASUS43 KMKX 291221
RWRWI

WISCONSIN REGIONAL WEATHER ROUNDUP
NATIONAL WEATHER SERVICE MILWAUKEE/SULLIVAN WI
700 AM CDT THU JUN 29 2017

NOTE: "FAIR" INDICATES FEW OR NO CLOUDS BELOW 12,000 FEET WITH NO
SIGNIFICANT WEATHER AND/OR OBSTRUCTIONS TO VISIBILITY.

WIZ001-002-006>008-014>016-023>028-291300-
NORTHWEST WISCONSIN

CITY           SKY/WX    TMP DP  RH WIND       PRES   REMARKS
SUPERIOR ARPT  NOT AVBL
ASHLAND        CLOUDY    56  54  93 W12       29.58S
6HR MIN TEMP:  54; 6HR MAX TEMP:  66; 6HR PCP:  0.14;

HAYWARD        CLOUDY    60  58  92 W3        29.62R FOG
6HR MIN TEMP:  58; 6HR MAX TEMP:  65; 6HR PCP:  0.03;

SIREN          CLOUDY    61  58  91 NW8       29.66R
6HR MIN TEMP:  61; 6HR MAX TEMP:  63; 6HR PCP:  0.01;

CUMBERLAND     CLOUDY    61  55  82 W9G17     29.66R
RICE LAKE      CLOUDY    62  58  86 W7        29.68R
6HR MIN TEMP:  62; 6HR MAX TEMP:  66;

CHETEK         CLOUDY    62  60  92 W7        29.67R
6HR MIN TEMP:  62; 6HR MAX TEMP:  65;

LADYSMITH      CLOUDY    62  60  93 W8        29.65R
6HR MIN TEMP:  62; 6HR MAX TEMP:  66;

EAU CLAIRE     CLOUDY    64  60  87 W7        29.68R
6HR MIN TEMP:  63; 6HR MAX TEMP:  67;

MENOMONIE      CLOUDY    65  60  86 SW8       29.69R
6HR MIN TEMP:  63; 6HR MAX TEMP:  67;

NEW RICHMOND   CLOUDY    63  60  91 W8        29.69R FOG
6HR MIN TEMP:  63; 6HR MAX TEMP:  67;

OSCEOLA        CLOUDY    64  64 100 W6        29.72R
6HR MIN TEMP:  63; 6HR MAX TEMP:  66;

$$

WIZ003>005-009-010-017-018-291300-
NORTH CENTRAL WISCONSIN

CITY           SKY/WX    TMP DP  RH WIND       PRES   REMARKS
MANITOWISH WTR LGT RAIN  58  58 100 W8        29.58S
6HR MIN TEMP:  58; 6HR MAX TEMP:  64; 6HR PCP:  0.01;

ARBOR VITAE    CLOUDY    62  60  95 W6        29.58S
6HR MIN TEMP:  62; 6HR MAX TEMP:  65;

WOODRUFF       CLOUDY    62  60  95 W6        29.58S
6HR MIN TEMP:  62; 6HR MAX TEMP:  65;

RHINELANDER    CLOUDY    63  63 100 SW9       29.60S
6HR MIN TEMP:  63; 6HR MAX TEMP:  65; 6HR PCP:  0.01;

EAGLE RIVER    DRIZZLE   62  62 100 SW8       29.57F
6HR MIN TEMP:  62; 6HR MAX TEMP:  64;

LAND O LAKES   DRIZZLE   63  63  98 SW8       29.59R
6HR MIN TEMP:  63; 6HR MAX TEMP:  65;

PHILLIPS       CLOUDY    60  60 100 W8        29.60S
6HR MIN TEMP:  60; 6HR MAX TEMP:  64; 6HR PCP:  0.01;

TOMAHAWK       NOT AVBL
MEDFORD        RAIN      61  60  95 SW9       29.64R
6HR MIN TEMP:  61; 6HR MAX TEMP:  63;

MERRILL        CLOUDY    64  63  94 W9        29.62R
6HR MIN TEMP:  64; 6HR MAX TEMP:  65;

$$

WIZ029-030-035-036-043>047-291300-
CENTRAL WISCONSIN

CITY           SKY/WX    TMP DP  RH WIND       PRES   REMARKS
WAUSAU         CLOUDY    64  62  93 SW13      29.63R
6HR MIN TEMP:  64; 6HR MAX TEMP:  65;

MOSINEE        CLOUDY    64  64 100 SW10      29.65R
MARSHFIELD     CLOUDY    64  61  90 W10       29.65R
6HR MIN TEMP:  64; 6HR MAX TEMP:  65;

STEVENS POINT  CLOUDY    64  64  99 SW10      29.67R
6HR MIN TEMP:  62; 6HR MAX TEMP:  65;

WAUPACA        MOSUNNY   68  67  98 SW8       29.65R
6HR MIN TEMP:  64; 6HR MAX TEMP:  68;

WAUTOMA        CLOUDY    66  64  93 SW10      29.68R
6HR MIN TEMP:  63; 6HR MAX TEMP:  66;

WISC RAPIDS    PTSUNNY   66  63  90 W10       29.68R
6HR MIN TEMP:  63; 6HR MAX TEMP:  66;

CAMP DOUGLAS   PTSUNNY   66  64  94 W10       29.69R
$$

WIZ011>013-019>022-031-037>040-048>050-291300-
NORTHEAST WISCONSIN

CITY           SKY/WX    TMP DP  RH WIND       PRES   REMARKS
ANTIGO         CLOUDY    64  62  95 SW9       29.62S
6HR MIN TEMP:  63; 6HR MAX TEMP:  64;

SHAWANO        PTSUNNY   70  64  83 SW8       29.62S
OCONTO         CLOUDY    67  64  89 SW6       29.61S
6HR MIN TEMP:  63; 6HR MAX TEMP:  67;

STURGEON BAY     N/A     64  63  96 S8        29.63F
6HR MIN TEMP:  58; 6HR MAX TEMP:  64;

GREEN BAY      CLOUDY    68  67  96 SW7       29.64S
6HR MIN TEMP:  67; 6HR MAX TEMP:  68;

MANITOWOC      SUNNY     64  62  93 S6        29.66S
6HR MIN TEMP:  58; 6HR MAX TEMP:  66; 6HR PCP: TRACE;

APPLETON       PTSUNNY   66  66 100 SW14G22   29.64R
CLINTONVILLE   MOSUNNY   66  63  88 SW8       29.63S
OSHKOSH        SUNNY     69  65  86 SW8       29.66R
6HR MIN TEMP:  65; 6HR MAX TEMP:  69;

$$

WIZ032>034-041-042-053>061-291300-
SOUTHWEST WISCONSIN

CITY           SKY/WX    TMP DP  RH WIND       PRES   REMARKS
LA CROSSE      CLOUDY    70  63  78 W8        29.71R
6HR MIN TEMP:  64; 6HR MAX TEMP:  70;

SPARTA         MOSUNNY   62  62  98 SW5       29.72R
6HR MIN TEMP:  59; 6HR MAX TEMP:  64;

VIROQUA        CLOUDY    64  64 100 W9        29.74R
6HR MIN TEMP:  62; 6HR MAX TEMP:  64;

BOSCOBEL       CLOUDY    68  66  93 SW5       29.74R
6HR MIN TEMP:  65; 6HR MAX TEMP:  68;

PRAIRIE DU CHI CLOUDY    67  64  90 SW8       29.74R
6HR MIN TEMP:  63; 6HR MAX TEMP:  67;

PLATTEVILLE    CLOUDY    67  66  99 SW12      29.77R
6HR MIN TEMP:  67; 6HR MAX TEMP:  69;

$$

WIZ056-057-062-063-064-067-068-291300-
SOUTH CENTRAL WISCONSIN

CITY           SKY/WX    TMP DP  RH WIND       PRES   REMARKS
REEDSBURG      PTSUNNY   66  66 100 SW10G17   29.71R
6HR MIN TEMP:  65; 6HR MAX TEMP:  67;

BARABOO/DELLS  CLOUDY    67  64  89 SW9G17    29.71R
6HR MIN TEMP:  65; 6HR MAX TEMP:  67;

LONE ROCK      CLOUDY    69  65  86 W9        29.72R
6HR MIN TEMP:  65; 6HR MAX TEMP:  69;

MINERAL POINT  CLOUDY    68  68 100 SW15G23   29.75S
MADISON        CLOUDY    69  65  86 VRB7      29.70S
6HR MIN TEMP:  66; 6HR MAX TEMP:  70; 6HR PCP: TRACE;

MIDDLETON      CLOUDY    70  66  89 W10G20    29.72R
6HR MIN TEMP:  68; 6HR MAX TEMP:  70;

WATERTOWN      CLOUDY    69  69 100 SW12      29.70R
6HR MIN TEMP:  64; 6HR MAX TEMP:  69;

MONROE         PTSUNNY   68  63  83 SW22      29.75R
JANESVILLE     MOSUNNY   73  63  68 W12G18    29.72R
$$

WIZ051-052-058>065-066-070>072-291300-
SOUTHEAST WISCONSIN

CITY           SKY/WX    TMP DP  RH WIND       PRES   REMARKS
MILWAUKEE      PTSUNNY   71  65  81 SW15      29.70R
6HR MIN TEMP:  66; 6HR MAX TEMP:  71; 6HR PCP:  0.19;

WAUKESHA       PTSUNNY   66  64  94 W14G20    29.72R
MILWAUKEE/TIMM CLOUDY    68  63  83 SW13G18   29.71R
RACINE         MOSUNNY   69  64  84 SW8       29.74R
6HR MIN TEMP:  64; 6HR MAX TEMP:  69; 6HR PCP:  0.20;

KENOSHA        CLOUDY    70  64  81 SW10      29.73R
6HR MIN TEMP:  64; 6HR MAX TEMP:  70; 6HR PCP:  0.22;

FOND DU LAC    SUNNY     69  64  84 SW12      29.67R
6HR MIN TEMP:  65; 6HR MAX TEMP:  69;

SHEBOYGAN      SUNNY     68  66  93 SW8       29.66S
6HR MIN TEMP:  63; 6HR MAX TEMP:  68; 6HR PCP: TRACE;

WEST BEND      CLOUDY    70  64  83 W16G26    29.69R
JUNEAU         CLOUDY    68  65  91 SW15      29.71R
6HR MIN TEMP:  64; 6HR MAX TEMP:  68;

$$

LSZ147-162-291300-
LAKE SUPERIOR

STATION/POSITION TIME  TEMP    WIND        PRES    WAVE
                       AIR SEA DIR/SP/G            HT/PER
                 (UTC) (F)     (DEG/KT/KT) (MB)    (FT/S)
W MID LAKE BUOY  1150   42 39   20/ 14/ 16 1000.4R   3/ 5
DEVILS ISLAND    1200   46     360/ 12/ 13 1001.6R
SAXON HARBOR     1140   58     220/  6/ 10 1001.0R
$$

LMZ867-665-643>646-291300-
LAKE MICHIGAN

STATION/POSITION TIME  TEMP    WIND        PRES    WAVE
                       AIR SEA DIR/SP/G            HT/PER
                 (UTC) (F)     (DEG/KT/KT) (MB)    (FT/S)
CHAMBERS ISLAND  1140   65     170/  5/ 10 1002.7S
S GREEN BAY BUOY 1200   66     210/ 10/ 12 1002.9
N MID LAKE BUOY  1150   56 54  190/ 16/ 17 1003.7F   6/ 6
NORTHPORT PIER   1140   59     160/  5/  8 1003.0F
KEWAUNEE LAKESHO 1154   53     180/  9/ 10 1003.6F
SHEBOYGAN LAKESH 1200   65     210/  7/  7 1004.3R
PORT WA



USA.gov is the U.S. government's official web portal to all federal, state and local government web resources and services.